Regional Weather Roundup
Issued by NWS

Home | Current Version | Previous Version | Text Only | Print | Product List | Glossary On
Versions: 1 2 3 4 5 6 7 8 9 10 11 12 13 14 15 16 17 18 19 20 21 22 23 24 25 26 27 28 29 30 31 32 33 34 35 36 37 38 39 40 41 42 43 44 45 46 47 48 49 50
000
ASUS43 KIND 180909
RWRIN

WEATHER ROUNDUP FOR INDIANA
NATIONAL WEATHER SERVICE INDIANAPOLIS IN
400 AM EST SUN FEB 18 2018

NOTE: "FAIR" INDICATES FEW OR NO CLOUDS BELOW 12,000 FEET WITH NO
SIGNIFICANT WEATHER AND/OR OBSTRUCTIONS TO VISIBILITY.

* - STATION DOES NOT REPORT WEATHER SUCH AS PRECIPITATION OR FOG.

+ - STATION NOT QUALITY CONTROLLED BY THE NATIONAL WEATHER SERVICE.
    USE DATA WITH CAUTION...ESPECIALLY DEWPOINT AND RELATIVE
    HUMIDITY OBSERVATIONS.

INZ001>003-010>013-019-020-181000-
NORTHWEST INDIANA

CITY           SKY/WX    TMP DP  RH WIND       PRES   REMARKS
GARY /AIRPORT/ FAIR      25  22  90 CALM      30.27S
KNOX *+        CLOUDY    28  25  86 NW8       30.24S WCI  20
LA PORTE +     CLOUDY    28  24  86 W7        30.25R WCI  21
MICHIGAN CITY+ CLOUDY    28  27  93 W7        30.25R WCI  21
MONTICELLO +   CLOUDY    27  25  90 NW8       30.26F WCI  19
RENSSELAER +   CLOUDY    28  23  80 W6        30.27S WCI  22
VALPARAISO     CLOUDY    27  23  85 W8        30.25R WCI  19

$$

LMZ046-743>745-181000-
SOUTHERN LAKE MICHIGAN

STATION/POSITION TIME  TEMP    WIND        PRES    WAVE
                       AIR SEA DIR/SP/G            HT
                 (UTC) (F)     (DEG/KT/KT) (MB)    (FT)
BURNS HARBOR     0840   27     260/ 11/ 13 1024.7R
MICHIGAN CITY    0840   27     250/ 13/ 14   N/A

$$

INZ004-005-014>016-021>024-181000-
NORTH CENTRAL INDIANA

CITY           SKY/WX    TMP DP  RH WIND       PRES   REMARKS
GOSHEN         CLOUDY    29  23  78 W13       30.24R WCI  19
LOGANSPORT +   CLOUDY    28  25  86 NW8       30.27S WCI  20
PERU/GRISSOM   CLOUDY    28  28 100 NW14      30.25R WCI  17
ROCHESTER +    CLOUDY    32  28  86 W7        30.26R WCI  26
SOUTH BEND     CLOUDY    28  23  81 W9        30.24R WCI  19
WARSAW +       CLOUDY    30  27  86 W7        30.25R WCI  23

$$

INZ006>009-017-018-025>027-181000-
NORTHEAST INDIANA

CITY           SKY/WX    TMP DP  RH WIND       PRES   REMARKS
AUBURN +       CLOUDY    30  27  86 W10G16    30.23R WCI  21
FORT WAYNE     CLOUDY    31  26  82 W14       30.25R WCI  21
HUNTINGTON +   CLOUDY    29  25  85 W7        30.26R WCI  22
KENDALLVILLE + CLOUDY    29  25  86 NW8G20    30.23R WCI  21

$$

INZ028-029-035-036-043>045-051>053-181000-
WEST CENTRAL INDIANA

CITY           SKY/WX    TMP DP  RH WIND       PRES   REMARKS
CRAWFORDSVL +  FAIR      25  25 100 NW5       30.26S WCI  19
GREENCASTLE +  FAIR      27  25  93 CALM      30.26R
LAFAYETTE      FAIR      26  24  92 VRB5      30.27R WCI  20
TERRE HAUTE    FAIR      26  25  96 CALM      30.28R

$$

INZ030>032-037>040-046>048-054>057-064-065-181000-
CENTRAL INDIANA

CITY           SKY/WX    TMP DP  RH WIND       PRES   REMARKS
FISHERS *+     CLOUDY    28  28 100 CALM      30.26R
FRANKFORT +    CLOUDY    31  28  88 NW8       30.27S WCI  24
GREENWOOD *+   MOCLDY   N/A N/A N/A W3        30.26R
INDIANAPOLIS   FAIR      27  23  85 NW14      30.26R WCI  16
-EAGLE CREEK   MOCLDY    29  24  82 NW5       30.24R WCI  24
KOKOMO +       CLOUDY    28  25  88 W8        30.27R WCI  20
MARION +       CLOUDY    29  26  89 W13       30.27R FOG     WCI  18
MT COMFORT *+  FAIR      27  27 100 NW5       30.26R WCI  21
SHELBYVILLE    MOCLDY    30  24  78 CALM      30.25R
ZIONSVILLE +   CLOUDY    28  26  91 NW8       30.25S WCI  20

$$

INZ033-034-041-042-049-050-058-059-181000-
EAST CENTRAL INDIANA

CITY           SKY/WX    TMP DP  RH WIND       PRES   REMARKS
MUNCIE         CLOUDY    31  25  78 NW14      30.26R WCI  21
RICHMOND +     CLOUDY    30  28  93 NW12      30.24R WCI  21

$$

INZ060-061-067>069-081>083-085>088-181000-
SOUTHWEST INDIANA

CITY           SKY/WX    TMP DP  RH WIND       PRES   REMARKS
EVANSVILLE     FOG       28  28 100 CALM      30.31R VSB 3/4
HUNTINGBURG +  MOCLDY    31  30  96 S5        30.30R FOG     WCI  26
WASHINGTON +   FAIR      31  30  94 CALM      30.29R

$$

INZ062-063-066-070>080-084-089>092-181000-
SOUTH CENTRAL AND SOUTHEAST INDIANA

CITY           SKY/WX    TMP DP  RH WIND       PRES   REMARKS
BATESVILLE +   CLOUDY    30  30 100 MISG      30.25R
BEDFORD +      MOCLDY    30  28  93 CALM      30.27R
BLOOMINGTON    FAIR      27  25  92 CALM      30.26R FOG
FRENCH LICK *+ FAIR      32 N/A N/A CALM      30.28R
MADISON *+     FAIR      32  30  93 CALM      30.29S
NORTH VERNON + MOCLDY    28  27  93 CALM      30.28R FOG
SEYMOUR +      CLOUDY    34  28  80 CALM      30.29R

$$





USA.gov is the U.S. government's official web portal to all federal, state and local government web resources and services.